Location: Ambrosina
(19.9365°S, 43.9833°W)
Time: 08:13:07
(UTC+00:00)

CZ-4B DEB - Pass Details

Date: 11 May 2021
Orbit: 841 x 860 km, 99.1° (Epoch: 22 June)

Event Time Altitude Azimuth Distance (km) Brightness Sun altitude
Rises 20:40:24 0° 162° (SSE) 3,419 7.0 -3.4°
Reaches altitude 10° 20:42:49 10° 159° (SSE) 2,477 6.3 -4.0°
Maximum altitude 20:48:15 62° 78° (ENE) 944 4.3 -5.2°
Drops below altitude 10° 20:53:37 10° 357° (N) 2,449 6.9 -6.4°
Sets 20:55:59 0° 354° (N) 3,377 7.7 -6.9°
